CZ-6A DEB, 56655

Orbit data source: Space-Track

CZ-6A DEB, 56655 is space debris in SSO originally from a launch on Fri, 11 Nov 2022 UTC launched from the Taiyaun Space Center, China (TSC). Debris objects in space refer to the collection of defunct objects orbiting the Earth. Examples of debris include non-operational satellites, rocket bodies, and fragments generated from explosions, collisions, or faulty payload assembly.

Loading next visibility...
Identifier
56655, 2022-151AGF
Orbit
SSO
Country
Flag of CNCN / PRC
Related business
Manufacturer
SAST
Mission
Spacecraft
Bus & Motor
Unknown
Mass
Unknown
Launch date (UTC)
2022-11-11 (3 years ago)
Launch vehicle
Unknown
Launch site
Taiyaun Space Center, China (TSC)
Object type
Payload
Rocket body
Debris
Shape & HBR
Unknown shape, 0.1 m
Radar Cross Section
Small (<0.1 m²)

Expand to show TLE details & history
Last TLE update: 1 day ago

TLE from 1 day ago
0 CZ-6A DEB
1 56655U 22151AGF 25349.82907555  .00001012  00000-0  32534-3 0  9996
2 56655  98.6455  20.1862 0084953 185.9585 174.0600 14.39547921138673
Epoch: 2025-12-15T19:53Z
TLE epoch observation values (Epoch: 2025-12-15T19:53:52.127Z)
Latitude
-0°
Longitude
-3.00303°
Altitude
823.269 km
Speed
7.41 km/s
True Right ascension
01h 20m 44s
True Declination
0° 00' 00"
Sunlit
Object was in daylight at epoch
Visualization orbit readout
Latitude
Unknown
Longitude
Unknown
Altitude
Unknown
Speed
Unknown
Apparent Right ascension
Unknown
Apparent Declination
Unknown
Sunlit
N/A
Visualization observer readout
Local Sidereal Time
21:34:49
Azimuth
Unknown
Elevation
Unknown
Doppler factor
Unknown
Orbital elements
Apogee altitude
817.738 km
Perigee altitude
696.505 km
Semi-major axis
7,135.259 km
Eccentricity
0.0085
Inclination
98.6455°
RAAN
20.1862°
Arg. of periapsis
185.9585°
True anomaly
174.15969°
Mean anomaly
174.06°
Eccentric anomaly
174.10995°
Mean motion
3.60105 °/min
Orbital period
99.97 mins
BSTAR
0.00032534
Loading maneuver chart data...
Computing Atmospheric mass density...
Loading historical data...
Loading historical data...
Loading historical data...
Loading historical data...
Loading historical data...
Loading historical data...
Loading historical data...

Documentation

Showing up to 5 results
|